[[{"header":{"parameterUnit":"m.s-1","parameterCategory":2,"la1":30.2991,"la2":30.254,"lo1":-89.0895,"lo2":-89.0444,"dy":0.0017,"dx":0.0017,"nx":28,"ny":28,"refTime":"2025-07-20T21:00:00:Z","depth":"0","parameterNumber":2,"parameterNumberName":"U-component_of_CURRENTS"},"data":[0,0,0,0,0,0,0,0,0,0,0,0,0,0,0,0,0,0,0,0,0,0,0,0,0,0,0,0,0,0,0,0,0,0,0,0,0,0,0,0,0,0,0,0,0,0,0,0,0,0,0,0,0,0,0,0,0,0,0.4757,0.4759,0,0.4898,0.4899,0.4901,0.4921,0.4921,0.492,0.4919,0.4953,0.4955,0.4956,0,0,0,0,0,0,0,0,0,0,0,0,0,0.4577,0.458,0.4757,0.4759,0.4761,0.4898,0.4899,0.4901,0.4921,0.4921,0.492,0.4919,0.4953,0.4954,0.4956,0,0,0,0,0,0,0,0,0,0,0,0,0,0.4675,0.458,0.4756,0.4793,0.4798,0.4898,0.49,0.4901,0.4922,0.4921,0.4919,0.4918,0.4952,0.4954,0.4957,0.4993,0,0,0.4964,0.4965,0,0,0,0,0,0,0,0,0.4669,0.468,0.4785,0.479,0.4796,0.4896,0.4849,0.4929,0.4922,0.4868,0.4919,0.4918,0.4929,0.4933,0.4955,0.4995,0.4996,0.4964,0.4965,0.4966,0.4967,0,0,0,0,0,0,0,0.4662,0.4675,0.4806,0.4788,0.4795,0.4828,0.4839,0.4865,0.4896,0.4873,0.4876,0.4902,0.493,0.4953,0.4956,0.4997,0.4964,0.4966,0.4967,0.4968,0.5141,0.5144,0,0,0,0,0,0,0.4655,0.4668,0.4802,0.4811,0.4736,0.4832,0.4844,0.486,0.4898,0.4906,0.4903,0.4903,0.4949,0.4953,0.4957,0.5067,0.4966,0.4969,0.497,0.5138,0.5141,0.5145,0,0,0,0,0,0,0.465,0.4665,0.4797,0.4748,0.4768,0.4836,0.4854,0.4864,0.4898,0.4924,0.4927,0.4929,0.4948,0.4954,0.4994,0.5065,0.497,0.4972,0.5134,0.5139,0.5143,0.5244,0,0,0,0,0,0,0.4644,0.4662,0.4674,0.4748,0.4771,0.4872,0.4856,0.4868,0.4918,0.4919,0.4947,0.4949,0.4948,0.499,0.4996,0.5067,0.4974,0.513,0.5136,0.5142,0.5237,0.5252,0.5264,0,0,0,0,0,0.4637,0.4671,0.4673,0.469,0.4783,0.4875,0.489,0.493,0.4921,0.4952,0.4963,0.4949,0.5033,0.4994,0.5,0.5073,0.5127,0.5134,0.5141,0.5231,0.5249,0.5264,0,0,0,0,0,0,0.4609,0.4679,0.4683,0.4737,0.4804,0.4881,0.492,0.4941,0.4978,0.4973,0.4975,0.498,0.5047,0.5045,0.5002,0.5143,0.5084,0.5093,0.515,0.5167,0.5181,0.5184,0.4976,0,0,0,0,0,0.4606,0.4644,0.4716,0.4763,0.4793,0.4853,0.4895,0.4926,0.4972,0.4987,0.5004,0.5033,0.5084,0.5108,0.5139,0.5207,0.5233,0.5264,0.5278,0.529,0.5299,0.5432,0.5459,0.5168,0.5168,0.5168,0,0,0.4617,0.4655,0.4682,0.4759,0.4807,0.4872,0.4875,0.495,0.5002,0.4984,0.5045,0.5075,0.5111,0.5191,0.5224,0.5197,0.5382,0.5299,0.5308,0.5311,0.5442,0.5471,0.5496,0.5173,0.5172,0.5171,0,0,0.4652,0.4682,0.4719,0.4783,0.4862,0.4901,0.4924,0.5003,0.5031,0.5099,0.5111,0.5189,0.5235,0.5302,0.5335,0.5448,0.5446,0.5455,0.5534,0.5664,0.569,0.5712,0.5758,0.5783,0.5468,0.5468,0.5468,0,0.465,0.4712,0.4751,0.4811,0.4875,0.4913,0.4984,0.5027,0.5108,0.5158,0.5126,0.5285,0.5302,0.5451,0.548,0.5484,0.5518,0.5465,0.5684,0.5706,0.5728,0.5769,0.5796,0.5474,0.5473,0.5473,0.5472,0,0.4715,0.4776,0.4814,0.4888,0.4959,0.5035,0.5104,0.5159,0.5187,0.5246,0.5382,0.5429,0.5534,0.5562,0.5543,0.5722,0.5682,0.5681,0.5639,0.5763,0.5798,0.5825,0.5482,0.548,0.5478,0.5477,0,0,0.4678,0.4823,0.4835,0.4903,0.5011,0.5084,0.5168,0.5281,0.5368,0.5436,0.5576,0.5666,0.5707,0.5749,0.5776,0.5874,0.6032,0.5831,0.5836,0.587,0.6266,0.614,0.6156,0.6072,0.6078,0.6083,0.6221,0,0.471,0.4829,0.4896,0.5034,0.5115,0.5198,0.5286,0.5397,0.5476,0.5611,0.5706,0.5834,0.5776,0.5851,0.5945,0.603,0.6111,0.5991,0.6145,0.6148,0.6019,0.6187,0.5855,0.5943,0.6246,0.6251,0.6254,0,0.4748,0.4828,0.4955,0.5137,0.5178,0.526,0.5436,0.5525,0.5704,0.5777,0.5925,0.5994,0.6166,0.609,0.6298,0.6223,0.6241,0.628,0.6287,0.6154,0.6074,0.5874,0.5979,0.5836,0.6294,0.6291,0.6288,0,0.4722,0.4883,0.4982,0.5047,0.5234,0.5313,0.5407,0.5581,0.5682,0.59,0.6009,0.6203,0.6317,0.6418,0.6463,0.6407,0.6662,0.6609,0.6506,0.6494,0.6233,0.6189,0.6212,0.6747,0.6747,0.6747,0.6746,0,0.4753,0.4849,0.4981,0.5051,0.519,0.5323,0.5483,0.5606,0.5801,0.595,0.6092,0.624,0.6405,0.6546,0.6562,0.6621,0.6752,0.6552,0.6555,0.6253,0.6211,0.6088,0.6033,0.6752,0.6751,0.675,0.6749,0,0.4765,0.4833,0.4972,0.514,0.519,0.5301,0.5502,0.5628,0.5798,0.6003,0.6081,0.6319,0.6496,0.6615,0.6796,0.6737,0.6624,0.6785,0.6375,0.6326,0.6057,0.6019,0.5873,0.5705,0.6711,0.671,0.6708,0,0.4797,0.4858,0.5011,0.508,0.5164,0.5316,0.5422,0.5606,0.5735,0.6029,0.6132,0.6367,0.6468,0.6676,0.6659,0.6696,0.6543,0.6409,0.625,0.6033,0.5996,0.5804,0.5659,0.5931,0.5924,0.5917,0.5912,0,0.4875,0.4907,0.5015,0.5126,0.5233,0.5335,0.5492,0.5571,0.5791,0.5907,0.6082,0.618,0.6363,0.6265,0.633,0.6308,0.6088,0.6278,0.6189,0.551,0.517,0.5008,0.581,0.5856,0.5861,0.5865,0.5868,0.5871,0.4931,0.5006,0.5106,0.5202,0.5281,0.5324,0.5325,0.5454,0.5541,0.5601,0.586,0.5815,0.5892,0.5912,0.5889,0.5641,0.5687,0.5443,0.5451,0.5306,0.5024,0.5671,0.5642,0.5646,0.565,0.5653,0.5656,0,0.5021,0.5084,0.5179,0.5235,0.5216,0.5274,0.5337,0.5241,0.5186,0.5269,0.5286,0.5221,0.5121,0.5168,0.5044,0.4849,0.4625,0.4731,0.4385,0.4315,0.5007,0.4852,0.4483,0.4484,0.4484,0.4484,0.4484,0.4484,0.5082,0.5171,0.5183,0.5128,0.5113,0.4966,0.4911,0.4764,0.4719,0.4492,0.4351,0.4395,0.4633,0.4666,0.4449,0.4321,0.4023,0.3792,0.3898,0.4386,0.4451,0.4514,0.4357,0.3891,0.3891,0.2948,0.2941,0.2936]},{"header":{"parameterUnit":"m.s-1","parameterCategory":2,"la1":30.2991,"la2":30.254,"lo1":-89.0895,"lo2":-89.0444,"dy":0.0017,"dx":0.0017,"nx":28,"ny":28,"refTime":"2025-07-20T21:00:00:Z","depth":"0","parameterNumber":3,"parameterNumberName":"V-component_of_CURRENTS"},"data":[0,0,0,0,0,0,0,0,0,0,0,0,0,0,0,0,0,0,0,0,0,0,0,0,0,0,0,0,0,0,0,0,0,0,0,0,0,0,0,0,0,0,0,0,0,0,0,0,0,0,0,0,0,0,0,0,0,0,0.021,0.0209,0,0.0141,0.014,0.0139,0.0073,0.0072,0.0071,0.0071,-0.0017,-0.0019,-0.0021,0,0,0,0,0,0,0,0,0,0,0,0,0,0.0235,0.0235,0.021,0.0209,0.0209,0.0142,0.014,0.0139,0.0073,0.0072,0.0071,0.0071,-0.0017,-0.0019,-0.0021,0,0,0,0,0,0,0,0,0,0,0,0,0,0.0199,0.0235,0.021,0.0169,0.0165,0.0142,0.014,0.0139,0.0073,0.0072,0.0071,0.007,-0.0016,-0.0019,-0.0021,-0.002,0,0,-0.0029,-0.0031,0,0,0,0,0,0,0,0,0.0201,0.0198,0.0176,0.0172,0.0168,0.0117,0.0117,0.0086,0.0073,0.0105,0.0071,0.007,0.0028,0.0022,0.0007,-0.0024,-0.0028,-0.003,-0.0031,-0.0032,-0.0033,0,0,0,0,0,0,0,0.0204,0.02,0.018,0.0176,0.017,0.0139,0.0133,0.0111,0.007,0.0102,0.0098,0.0095,0.0025,0.001,0.0005,-0.0029,-0.003,-0.0032,-0.0034,-0.0035,-0.007,-0.0069,0,0,0,0,0,0,0.0222,0.0203,0.0182,0.0178,0.0186,0.014,0.0133,0.0132,0.007,0.0061,0.0096,0.0092,0.0015,0.0008,0.0001,0.0025,-0.0032,-0.0035,-0.0037,-0.007,-0.007,-0.0069,0,0,0,0,0,0,0.0223,0.0221,0.0185,0.0191,0.0184,0.0141,0.014,0.0131,0.012,0.0067,0.0056,0.0095,0.0014,0.0005,-0.0009,0.002,-0.0036,-0.0039,-0.0071,-0.007,-0.0069,0.0056,0,0,0,0,0,0,0.0224,0.0221,0.0225,0.0192,0.0185,0.0187,0.0141,0.0131,0.0121,0.0115,0.0062,0.0053,0.0013,-0.0005,-0.0012,0.0015,-0.0041,-0.0072,-0.0071,-0.007,0.0051,0.0062,0.007,0,0,0,0,0,0.0225,0.0248,0.0226,0.0223,0.0192,0.0188,0.0182,0.0145,0.0122,0.0129,0.0089,0.0054,-0.0002,-0.0006,-0.0015,0.0013,-0.0073,-0.0071,-0.007,0.0047,0.006,0.007,0,0,0,0,0,0,0.0265,0.0243,0.0217,0.0232,0.0215,0.0179,0.0182,0.0156,0.013,0.0121,0.0067,0.0056,0.0049,0.0013,0.001,0.0003,-0.0045,-0.0045,0.0047,0.0058,0.0067,0.0118,-0.0043,0,0,0,0,0,0.0275,0.0283,0.0254,0.0266,0.026,0.022,0.0213,0.0189,0.0163,0.015,0.0113,0.0074,0.0048,0.004,0.0005,0.0012,-0.0003,0.002,0.003,0.0038,0.0072,0.0092,0.0108,-0.0064,-0.0064,-0.0064,0,0,0.0294,0.0283,0.0287,0.0274,0.0254,0.0273,0.0213,0.0213,0.0234,0.0146,0.0159,0.0103,0.0054,0.0054,0.0049,0.0031,0.0071,0.004,0.0048,0.0078,0.0096,0.0113,0.0129,-0.0063,-0.0063,-0.0063,0,0,0.0354,0.0326,0.0357,0.0352,0.0335,0.0313,0.032,0.0289,0.0277,0.0276,0.0218,0.0196,0.0149,0.0134,0.0117,0.0162,0.0114,0.013,0.0233,0.0252,0.0268,0.0281,0.0258,0.0268,0.0145,0.0145,0.0145,0,0.0377,0.0412,0.0367,0.0399,0.0411,0.0342,0.0388,0.0371,0.034,0.0353,0.0296,0.0258,0.0199,0.0235,0.023,0.019,0.0172,0.0198,0.027,0.0283,0.0295,0.0267,0.0277,0.0151,0.015,0.015,0.0149,0,0.0465,0.049,0.0511,0.0529,0.0532,0.0558,0.0532,0.0534,0.05,0.0485,0.0495,0.0418,0.0405,0.0369,0.0306,0.0361,0.0308,0.0275,0.0252,0.032,0.0285,0.0293,0.016,0.0158,0.0156,0.0154,0,0,0.0523,0.0568,0.0573,0.0612,0.0605,0.0624,0.0659,0.0684,0.0735,0.0677,0.075,0.0667,0.0619,0.0597,0.0522,0.0523,0.0552,0.0434,0.0432,0.0431,0.0566,0.0506,0.0508,0.0531,0.0534,0.0536,0.0498,0,0.0607,0.0704,0.07,0.0792,0.0838,0.0805,0.0857,0.0865,0.0852,0.09,0.0836,0.0859,0.0711,0.0711,0.0687,0.0601,0.0584,0.0564,0.0483,0.048,0.0438,0.0521,0.0467,0.0429,0.0506,0.0507,0.0508,0,0.069,0.0749,0.0856,0.0941,0.096,0.1009,0.1081,0.112,0.1153,0.1149,0.115,0.1093,0.1085,0.095,0.0859,0.085,0.0716,0.0633,0.0629,0.0548,0.044,0.0375,0.044,0.0215,0.052,0.0519,0.0518,0,0.0749,0.0855,0.095,0.0976,0.1057,0.1115,0.1161,0.1203,0.1272,0.1326,0.1388,0.1337,0.1351,0.1205,0.0983,0.0936,0.0876,0.0795,0.0615,0.0607,0.0536,0.0518,0.0399,0.0738,0.0738,0.0738,0.0738,0,0.0829,0.0906,0.0997,0.105,0.1189,0.121,0.1355,0.1387,0.1484,0.162,0.1531,0.1632,0.1418,0.1335,0.1095,0.0891,0.096,0.0665,0.0618,0.057,0.0557,0.0334,0.0193,0.0737,0.0737,0.0737,0.0738,0,0.0869,0.0922,0.1045,0.1168,0.1217,0.1315,0.1479,0.1594,0.1663,0.1847,0.1886,0.1882,0.1801,0.1542,0.1327,0.1067,0.071,0.0748,0.0681,0.0628,0.0253,0.0121,-0.0051,-0.0143,0.0579,0.0577,0.0576,0,0.0899,0.0966,0.1124,0.1216,0.1282,0.1434,0.1556,0.1665,0.1809,0.2016,0.2134,0.2122,0.2133,0.1775,0.134,0.0944,0.0696,0.0607,0.0512,0.026,0.0079,-0.0023,-0.0094,0.0443,0.0441,0.0439,0.0438,0,0.0965,0.1015,0.1115,0.1302,0.1449,0.1627,0.182,0.1962,0.214,0.2319,0.254,0.2573,0.2245,0.1844,0.1276,0.0981,0.0433,0.056,0.0337,0.0012,-0.0141,-0.0261,0.0403,0.0423,0.0424,0.0426,0.0426,0.0427,0.1008,0.1094,0.1229,0.1407,0.1581,0.1818,0.1984,0.2218,0.2482,0.2765,0.2805,0.2874,0.2275,0.1523,0.1099,0.0303,0.0334,0.0039,-0.0089,-0.0158,-0.0274,0.0343,0.0288,0.0288,0.0289,0.029,0.029,0,0.1081,0.1179,0.1338,0.1562,0.1765,0.185,0.2162,0.2351,0.2683,0.2909,0.3088,0.28,0.2064,0.1323,0.0258,-0.0275,-0.0455,-0.0546,-0.0708,-0.0738,-0.0156,-0.0189,-0.0395,-0.0394,-0.0394,-0.0394,-0.0394,-0.0393,0.1126,0.1276,0.1362,0.168,0.1849,0.2128,0.2314,0.2586,0.2793,0.3042,0.3052,0.303,0.2426,0.0611,-0.0587,-0.0843,-0.118,-0.1301,-0.1404,-0.1042,-0.0997,-0.0954,-0.1016,-0.1392,-0.1393,-0.1937,-0.1943,-0.1948]}],[{"header":{"parameterUnit":"m.s-1","parameterCategory":2,"la1":30.2991,"la2":30.254,"lo1":-89.0895,"lo2":-89.0444,"dy":0.0017,"dx":0.0017,"nx":28,"ny":28,"refTime":"2025-07-20T21:00:00:Z","depth":"2","parameterNumber":2,"parameterNumberName":"U-component_of_CURRENTS"},"data":[0,0,0,0,0,0,0,0,0,0,0,0,0,0,0,0,0,0,0,0,0,0,0,0,0,0,0,0,0,0,0,0,0,0,0,0,0,0,0,0,0,0,0,0,0,0,0,0,0,0,0,0,0,0,0,0,0,0,0.3514,0.3515,0,0.3565,0.3565,0.3565,0.3568,0.3568,0.3568,0.3567,0.3589,0.3589,0.359,0,0,0,0,0,0,0,0,0,0,0,0,0,0.3411,0.3412,0.3514,0.3515,0.3516,0.3565,0.3565,0.3565,0.3568,0.3568,0.3568,0.3567,0.3588,0.3589,0.359,0,0,0,0,0,0,0,0,0,0,0,0,0,0.3453,0.3413,0.3514,0.3527,0.3529,0.3565,0.3565,0.3565,0.3568,0.3568,0.3567,0.3567,0.3588,0.3589,0.359,0.3601,0,0,0.3594,0.3594,0,0,0,0,0,0,0,0,0.3451,0.3456,0.3524,0.3526,0.3528,0.3564,0.3537,0.3578,0.3568,0.3548,0.3567,0.3567,0.3581,0.3583,0.3586,0.3602,0.3603,0.3594,0.3594,0.3595,0.3595,0,0,0,0,0,0,0,0.3448,0.3454,0.3529,0.3525,0.3528,0.3528,0.3533,0.3544,0.3561,0.355,0.3551,0.3565,0.3581,0.3585,0.3587,0.3604,0.3594,0.3595,0.3595,0.3596,0.3676,0.3677,0,0,0,0,0,0,0.3452,0.3452,0.3528,0.3531,0.3494,0.353,0.3536,0.3549,0.3561,0.3565,0.3565,0.3565,0.3584,0.3586,0.3588,0.3685,0.3595,0.3596,0.3596,0.3674,0.3676,0.3678,0,0,0,0,0,0,0.345,0.3459,0.3526,0.3496,0.3505,0.3533,0.3547,0.355,0.3568,0.3574,0.3576,0.3581,0.3583,0.3586,0.3624,0.3682,0.3596,0.3597,0.3673,0.3675,0.3677,0.3825,0,0,0,0,0,0,0.3447,0.3457,0.3475,0.3497,0.3508,0.3561,0.3548,0.3551,0.3578,0.3578,0.3589,0.359,0.3583,0.3622,0.3625,0.3682,0.3598,0.3671,0.3674,0.3676,0.3818,0.3832,0.3844,0,0,0,0,0,0.3443,0.3478,0.3475,0.3485,0.3529,0.3563,0.3568,0.3583,0.3579,0.3595,0.3609,0.359,0.3641,0.3625,0.3627,0.3686,0.3669,0.3673,0.3676,0.3813,0.3829,0.3844,0,0,0,0,0,0,0.3491,0.3482,0.348,0.3524,0.3545,0.3566,0.3588,0.3593,0.3616,0.3626,0.3615,0.3618,0.3677,0.365,0.3632,0.3712,0.365,0.3654,0.3753,0.3768,0.3781,0.3826,0.3599,0,0,0,0,0,0.3497,0.3481,0.3511,0.3541,0.3555,0.357,0.3588,0.3605,0.3627,0.3636,0.3655,0.3667,0.3691,0.3703,0.372,0.3762,0.3787,0.3795,0.3808,0.382,0.3856,0.3969,0.3998,0.3689,0.3689,0.3689,0,0,0.3494,0.3517,0.3492,0.3543,0.3556,0.3596,0.3579,0.3623,0.3666,0.3637,0.3707,0.3722,0.3712,0.3773,0.3794,0.3759,0.3912,0.3824,0.3834,0.3865,0.3976,0.4007,0.4034,0.3691,0.3691,0.369,0,0,0.3523,0.3533,0.3534,0.356,0.361,0.3629,0.3645,0.369,0.3718,0.3777,0.378,0.3831,0.3851,0.3881,0.3886,0.3972,0.3983,0.397,0.4074,0.4184,0.4212,0.4237,0.4283,0.4311,0.397,0.397,0.3971,0,0.3512,0.3554,0.3548,0.3599,0.3624,0.3646,0.3689,0.3728,0.3788,0.3839,0.3814,0.3917,0.3906,0.3999,0.4036,0.4008,0.4061,0.4021,0.4208,0.4233,0.4256,0.4297,0.4326,0.3978,0.3977,0.3976,0.3976,0,0.3568,0.3593,0.3612,0.3654,0.3698,0.3732,0.3792,0.3859,0.3893,0.3942,0.4054,0.4064,0.4132,0.413,0.4112,0.4272,0.4252,0.4222,0.4182,0.4297,0.4331,0.4359,0.3989,0.3986,0.3984,0.3982,0,0,0.3508,0.3607,0.3606,0.3641,0.3725,0.3763,0.3865,0.3961,0.403,0.4118,0.4239,0.4288,0.4332,0.4342,0.4342,0.4429,0.4616,0.4416,0.4418,0.4485,0.4854,0.4669,0.468,0.4651,0.4657,0.4662,0.4803,0,0.3526,0.3597,0.3668,0.3738,0.3767,0.3851,0.3947,0.4057,0.4116,0.425,0.4335,0.4438,0.4398,0.4455,0.455,0.4616,0.4703,0.458,0.4712,0.4715,0.4558,0.4711,0.4352,0.4435,0.483,0.4835,0.4838,0,0.3562,0.3591,0.3671,0.3772,0.3801,0.3879,0.4019,0.4108,0.4301,0.4363,0.4505,0.4591,0.4773,0.4705,0.4906,0.4847,0.4881,0.4904,0.4909,0.4714,0.4584,0.4386,0.447,0.4884,0.4881,0.4877,0.4874,0,0.351,0.3597,0.366,0.369,0.383,0.3915,0.3991,0.4151,0.4259,0.4462,0.4579,0.477,0.4889,0.5015,0.5081,0.5042,0.5277,0.5206,0.506,0.5044,0.4748,0.4695,0.5361,0.5361,0.536,0.536,0.536,0,0.3505,0.3532,0.3644,0.3669,0.3792,0.3888,0.4024,0.4138,0.4326,0.4473,0.465,0.4789,0.499,0.5146,0.5184,0.5213,0.5362,0.5127,0.5099,0.4779,0.473,0.5118,0.5088,0.5365,0.5364,0.5363,0.5362,0,0.3452,0.3525,0.3596,0.3719,0.379,0.3872,0.4061,0.4129,0.4314,0.4519,0.4632,0.4889,0.5065,0.5204,0.5375,0.5299,0.5361,0.5318,0.4896,0.4816,0.5025,0.5001,0.52,0.5195,0.5191,0.5188,0.5185,0,0.3426,0.3461,0.3621,0.3697,0.3766,0.3885,0.3977,0.4137,0.4188,0.4543,0.4634,0.4922,0.5024,0.5193,0.517,0.5207,0.5307,0.4835,0.4675,0.5072,0.5026,0.5007,0.4989,0.4334,0.4325,0.4317,0.4311,0,0.3366,0.3452,0.3518,0.368,0.3789,0.388,0.3977,0.402,0.4218,0.4362,0.4551,0.4699,0.488,0.4745,0.4786,0.475,0.4805,0.4671,0.5273,0.4407,0.4261,0.4213,0.4223,0.4242,0.4249,0.4254,0.4257,0.426,0.3348,0.3368,0.3518,0.3656,0.3787,0.3849,0.3801,0.3865,0.3955,0.4074,0.4296,0.4338,0.4421,0.4289,0.4184,0.4118,0.4422,0.422,0.4243,0.4275,0.4126,0.3979,0.3877,0.3881,0.3885,0.3889,0.3892,0,0.336,0.3391,0.3479,0.363,0.3692,0.3806,0.3799,0.3665,0.3609,0.3771,0.384,0.3593,0.3518,0.363,0.3422,0.3395,0.3358,0.3258,0.3194,0.3267,0.3332,0.3132,0.2621,0.2616,0.2612,0.2608,0,0,0.338,0.3417,0.3414,0.351,0.3597,0.3493,0.3405,0.3282,0.326,0.3159,0.3141,0.338,0.3532,0.3031,0.2972,0.2765,0.2988,0.2659,0.3694,0.3695,0.3753,0.3916,0.3694,0,0,0,0,0]},{"header":{"parameterUnit":"m.s-1","parameterCategory":2,"la1":30.2991,"la2":30.254,"lo1":-89.0895,"lo2":-89.0444,"dy":0.0017,"dx":0.0017,"nx":28,"ny":28,"refTime":"2025-07-20T21:00:00:Z","depth":"2","parameterNumber":3,"parameterNumberName":"V-component_of_CURRENTS"},"data":[0,0,0,0,0,0,0,0,0,0,0,0,0,0,0,0,0,0,0,0,0,0,0,0,0,0,0,0,0,0,0,0,0,0,0,0,0,0,0,0,0,0,0,0,0,0,0,0,0,0,0,0,0,0,0,0,0,0,0.0109,0.0108,0,0.0057,0.0056,0.0055,0.0009,0.0008,0.0008,0.0007,-0.0068,-0.0069,-0.0071,0,0,0,0,0,0,0,0,0,0,0,0,0,0.0121,0.0121,0.0109,0.0108,0.0108,0.0057,0.0056,0.0055,0.0009,0.0008,0.0008,0.0007,-0.0067,-0.0069,-0.0071,0,0,0,0,0,0,0,0,0,0,0,0,0,0.0096,0.0121,0.0109,0.0079,0.0076,0.0057,0.0056,0.0055,0.0009,0.0008,0.0008,0.0007,-0.0067,-0.0069,-0.0071,-0.0072,0,0,-0.0079,-0.008,0,0,0,0,0,0,0,0,0.0097,0.0095,0.0084,0.0081,0.0077,0.0039,0.0032,0.0012,0.0009,0.0033,0.0007,0.0007,-0.0033,-0.0038,-0.0048,-0.0076,-0.0079,-0.0079,-0.008,-0.0081,-0.0082,0,0,0,0,0,0,0,0.0099,0.0097,0.0087,0.0083,0.0079,0.0052,0.0048,0.0028,0.0004,0.0031,0.0028,0.0024,-0.0035,-0.0045,-0.005,-0.008,-0.0079,-0.0081,-0.0082,-0.0083,-0.013,-0.013,0,0,0,0,0,0,0.0111,0.0099,0.0089,0.0086,0.0087,0.0053,0.0048,0.0051,0.0004,-0.0003,0.0024,0.0022,-0.0041,-0.0047,-0.0053,-0.0047,-0.0081,-0.0083,-0.0085,-0.0131,-0.013,-0.013,0,0,0,0,0,0,0.0112,0.0111,0.0091,0.0091,0.0087,0.0054,0.0057,0.0051,0.0043,-0.0001,-0.0009,0.0024,-0.0042,-0.0049,-0.0065,-0.0051,-0.0085,-0.0087,-0.0131,-0.013,-0.013,-0.0042,0,0,0,0,0,0,0.0112,0.0112,0.0117,0.0093,0.0087,0.0093,0.0058,0.005,0.0042,0.0038,-0.0004,-0.0012,-0.0043,-0.0061,-0.0067,-0.0055,-0.0088,-0.0131,-0.0131,-0.013,-0.0045,-0.0039,-0.0033,0,0,0,0,0,0.0113,0.0134,0.0118,0.0116,0.0096,0.0094,0.0089,0.0062,0.0043,0.005,0.0017,-0.001,-0.0064,-0.0062,-0.0069,-0.0057,-0.0131,-0.0131,-0.013,-0.0048,-0.004,-0.0033,0,0,0,0,0,0,0.0142,0.013,0.0112,0.0127,0.0114,0.0087,0.0089,0.007,0.0049,0.0042,-0.0002,-0.0012,-0.0024,-0.0053,-0.005,-0.0073,-0.0104,-0.0105,-0.0039,-0.0032,-0.0026,0.0016,-0.009,0,0,0,0,0,0.0151,0.0164,0.0142,0.0154,0.0149,0.0119,0.0112,0.0095,0.0074,0.0064,0.0034,-0.0001,-0.0028,-0.0039,-0.0068,-0.0072,-0.0098,-0.0073,-0.0067,-0.0062,-0.0035,-0.0058,-0.0051,-0.0129,-0.0129,-0.0129,0,0,0.0167,0.0161,0.0167,0.0161,0.0145,0.016,0.0114,0.0113,0.0128,0.0059,0.0067,0.002,-0.0026,-0.0035,-0.0043,-0.0056,-0.0059,-0.0062,-0.0056,-0.0031,-0.0057,-0.0049,-0.0042,-0.0129,-0.0129,-0.0129,0,0,0.0215,0.0197,0.0225,0.0221,0.0207,0.0191,0.0196,0.0172,0.0162,0.0159,0.0109,0.0075,0.004,0.001,-0.001,0.0012,-0.0029,-0.0005,0.0066,0.0042,0.0049,0.0055,0.0014,0.0016,0.0002,0.0002,0.0002,0,0.0231,0.0264,0.0233,0.0258,0.0264,0.0213,0.0247,0.0234,0.0209,0.0213,0.0173,0.0117,0.0065,0.0063,0.0062,0.0028,0.0006,0.0046,0.0053,0.0059,0.0063,0.0019,0.002,0.0006,0.0006,0.0005,0.0005,0,0.0301,0.0323,0.0339,0.0356,0.0358,0.0377,0.0355,0.0359,0.0331,0.0312,0.0297,0.022,0.0192,0.0156,0.0116,0.0123,0.0093,0.0062,0.0043,0.0077,0.0027,0.0027,0.0012,0.0011,0.0009,0.0008,0,0,0.0346,0.0384,0.0387,0.0421,0.0412,0.0431,0.0454,0.0468,0.0499,0.0442,0.0478,0.0391,0.0342,0.0316,0.0247,0.0218,0.0203,0.0166,0.0162,0.014,0.0149,0.0066,0.0056,0.0183,0.0183,0.0184,0.0095,0,0.0408,0.0489,0.0483,0.0557,0.0598,0.0569,0.0609,0.0611,0.0586,0.0606,0.0521,0.0519,0.0405,0.0397,0.0345,0.0253,0.021,0.023,0.0107,0.0104,0.0039,0.0056,0.0106,0.0026,0.0093,0.0093,0.0093,0,0.0473,0.0525,0.0613,0.0684,0.0699,0.0737,0.0789,0.0817,0.0816,0.0798,0.0759,0.0696,0.0643,0.0544,0.0398,0.0422,0.0299,0.0209,0.0203,0.0104,0.0021,0.0005,0.0022,0.0091,0.0091,0.0092,0.0092,0,0.0532,0.0613,0.0694,0.0714,0.0782,0.0828,0.0868,0.0882,0.0942,0.0931,0.097,0.0861,0.0841,0.0684,0.0472,0.0452,0.031,0.0252,0.0055,0.0047,0.0055,0.0046,0.0155,0.0155,0.0155,0.0155,0.0155,0,0.0598,0.0662,0.0739,0.0785,0.091,0.0919,0.1042,0.1051,0.111,0.1209,0.1085,0.1125,0.0882,0.0763,0.0546,0.0299,0.0357,0.008,0.0027,0.0081,0.0075,0.0108,0.0104,0.0152,0.0153,0.0153,0.0154,0,0.0645,0.0685,0.0796,0.0897,0.0942,0.1034,0.1186,0.129,0.1303,0.1431,0.1452,0.1349,0.1182,0.0911,0.0647,0.0406,0.0172,0.0065,0.0128,0.0083,-0.0097,-0.0096,-0.0153,-0.0157,-0.016,-0.0162,-0.0164,0,0.0678,0.0741,0.0884,0.098,0.1035,0.1182,0.1314,0.1384,0.15,0.1575,0.166,0.1534,0.1443,0.0995,0.0587,0.0189,0.0143,-0.0057,-0.0105,-0.0078,-0.0124,-0.0118,-0.0113,-0.0067,-0.0069,-0.0069,-0.007,0,0.0762,0.0808,0.0906,0.1091,0.1245,0.1435,0.1612,0.1724,0.1831,0.1908,0.1967,0.1895,0.1481,0.1067,0.0502,0.0234,0.0005,-0.0092,-0.0044,-0.001,-0.0008,-0.005,-0.0045,-0.0078,-0.0077,-0.0077,-0.0076,-0.0076,0.083,0.0923,0.1058,0.1234,0.1416,0.1653,0.18,0.1973,0.2141,0.2234,0.2167,0.2045,0.1595,0.0857,0.0405,-0.0064,-0.0054,-0.0237,-0.0229,-0.0221,-0.0207,-0.0212,-0.0319,-0.0319,-0.032,-0.032,-0.032,0,0.094,0.1046,0.1207,0.1428,0.1631,0.1719,0.1984,0.2104,0.2272,0.2345,0.2332,0.188,0.1417,0.0926,0.0233,-0.0215,-0.0216,-0.0357,-0.0245,-0.0235,-0.0226,-0.0209,-0.0323,-0.0324,-0.0326,-0.0327,0,0,0.1011,0.1178,0.1257,0.1575,0.1736,0.1988,0.213,0.2266,0.2338,0.2354,0.2282,0.2137,0.1551,0.1042,0.0469,0.0083,0.0021,-0.0003,0.0045,0.0255,0.0269,-0.0116,-0.0073,0,0,0,0,0]}],[{"header":{"parameterUnit":"m.s-1","parameterCategory":2,"la1":30.2991,"la2":30.254,"lo1":-89.0895,"lo2":-89.0444,"dy":0.0017,"dx":0.0017,"nx":28,"ny":28,"refTime":"2025-07-20T21:00:00:Z","depth":"4","parameterNumber":2,"parameterNumberName":"U-component_of_CURRENTS"},"data":[0,0,0,0,0,0,0,0,0,0,0,0,0,0,0,0,0,0,0,0,0,0,0,0,0,0,0,0,0,0,0,0,0,0,0,0,0,0,0,0,0,0,0,0,0,0,0,0,0,0,0,0,0,0,0,0,0,0,0.1916,0.1917,0,0.2005,0.2006,0.2007,0.207,0.2071,0.2072,0.2072,0.216,0.2162,0.2164,0,0,0,0,0,0,0,0,0,0,0,0,0,0.1818,0.1819,0.1916,0.1917,0.1919,0.2005,0.2006,0.2008,0.207,0.2071,0.2072,0.2072,0.2159,0.2162,0.2164,0,0,0,0,0,0,0,0,0,0,0,0,0,0.1879,0.182,0.1916,0.1961,0.1966,0.2005,0.2006,0.2008,0.207,0.2071,0.2072,0.2073,0.2159,0.2161,0.2164,0.2164,0,0,0.2172,0.2174,0,0,0,0,0,0,0,0,0.1875,0.1882,0.1953,0.1958,0.1964,0.2028,0.2004,0.206,0.207,0.203,0.2072,0.2073,0.2116,0.2122,0.2136,0.2168,0.2172,0.2173,0.2174,0.2175,0.2176,0,0,0,0,0,0,0,0.1871,0.1879,0.1951,0.1954,0.1961,0.1983,0.1992,0.2015,0.2066,0.2033,0.2038,0.2049,0.2119,0.2133,0.2138,0.2173,0.2173,0.2175,0.2177,0.2178,0.2317,0.2319,0,0,0,0,0,0,0.186,0.1875,0.1948,0.1954,0.1921,0.1984,0.1994,0.2006,0.2066,0.2077,0.2048,0.2052,0.2128,0.2135,0.2142,0.2246,0.2175,0.2178,0.218,0.2315,0.2318,0.232,0,0,0,0,0,0,0.1857,0.1865,0.1944,0.1917,0.1928,0.1984,0.1997,0.2007,0.2055,0.2078,0.2088,0.209,0.2129,0.2138,0.2192,0.2246,0.2179,0.2182,0.2313,0.2316,0.2319,0.239,0,0,0,0,0,0,0.1854,0.1864,0.189,0.1916,0.193,0.1975,0.1997,0.2009,0.2059,0.2065,0.2116,0.2123,0.213,0.2188,0.2194,0.2249,0.2184,0.231,0.2314,0.2318,0.2385,0.2395,0.2403,0,0,0,0,0,0.185,0.1876,0.189,0.1901,0.1956,0.1975,0.1984,0.2026,0.206,0.2075,0.2122,0.2123,0.2218,0.2191,0.2199,0.2255,0.2308,0.2313,0.2318,0.2381,0.2393,0.2403,0,0,0,0,0,0,0.184,0.1886,0.1902,0.194,0.1959,0.1986,0.2024,0.2045,0.2095,0.2127,0.2142,0.2152,0.222,0.2225,0.2196,0.2307,0.2266,0.2273,0.2312,0.2324,0.2333,0.2336,0.2186,0,0,0,0,0,0.1849,0.1892,0.1913,0.1947,0.1964,0.2,0.2025,0.2052,0.209,0.2116,0.2155,0.2203,0.224,0.2271,0.2299,0.2357,0.238,0.2401,0.2411,0.2418,0.2427,0.2509,0.2527,0.2335,0.2335,0.2335,0,0,0.185,0.1888,0.1909,0.195,0.1982,0.2011,0.2019,0.207,0.2111,0.2117,0.2208,0.2235,0.226,0.2327,0.2359,0.2344,0.2487,0.2424,0.2431,0.2435,0.2516,0.2535,0.2551,0.2339,0.2338,0.2337,0,0,0.1863,0.1913,0.1944,0.1973,0.2028,0.205,0.2068,0.2118,0.2163,0.2234,0.2255,0.231,0.238,0.2404,0.2424,0.2501,0.2527,0.2526,0.2587,0.2667,0.2683,0.2698,0.2756,0.2776,0.2539,0.2539,0.2539,0,0.1865,0.191,0.1951,0.199,0.2027,0.2069,0.2101,0.2148,0.2214,0.2263,0.2278,0.24,0.2415,0.2489,0.252,0.2523,0.2573,0.254,0.268,0.2695,0.2709,0.2765,0.2785,0.2543,0.2542,0.2542,0.2542,0,0.1889,0.1939,0.1967,0.2034,0.207,0.2115,0.217,0.2234,0.2305,0.2353,0.246,0.2492,0.2566,0.2582,0.2579,0.2687,0.2693,0.2676,0.265,0.2733,0.2786,0.2806,0.2548,0.2547,0.2546,0.2545,0,0,0.1868,0.1961,0.1981,0.2012,0.2108,0.2129,0.2224,0.2302,0.2381,0.2468,0.2572,0.2634,0.2677,0.2701,0.2712,0.2776,0.2909,0.2784,0.2786,0.2839,0.31,0.2876,0.2876,0.2938,0.2941,0.2944,0.31,0,0.1879,0.1936,0.2001,0.2068,0.2092,0.2186,0.2266,0.2356,0.2449,0.2564,0.2637,0.274,0.2717,0.2779,0.2839,0.29,0.2967,0.2869,0.3014,0.3018,0.2807,0.2892,0.2957,0.3114,0.3119,0.3122,0.3125,0,0.1882,0.1926,0.1975,0.208,0.2109,0.2175,0.2318,0.2396,0.2562,0.2648,0.2767,0.284,0.2962,0.2928,0.3084,0.3038,0.3081,0.3111,0.3117,0.2894,0.2829,0.3015,0.3161,0.3158,0.3155,0.3153,0.3151,0,0.1814,0.1914,0.1951,0.1988,0.2109,0.2187,0.228,0.2434,0.2528,0.2723,0.2834,0.2967,0.308,0.3159,0.3227,0.3196,0.3383,0.3341,0.3173,0.3158,0.3282,0.3265,0.3449,0.3449,0.3448,0.3448,0.3448,0,0.1783,0.1827,0.1933,0.1961,0.2046,0.2158,0.2284,0.2406,0.2597,0.272,0.2884,0.2994,0.3156,0.3274,0.3298,0.3295,0.345,0.3196,0.3187,0.3308,0.3292,0.3297,0.3277,0.3454,0.3452,0.3451,0.345,0,0.1691,0.1762,0.1814,0.1955,0.2009,0.2077,0.2287,0.2371,0.2585,0.2758,0.2846,0.3082,0.3232,0.3339,0.3478,0.3372,0.3394,0.3349,0.3487,0.3481,0.3101,0.3083,0.3184,0.3177,0.3172,0.3167,0.3163,0,0.1637,0.1644,0.1783,0.1818,0.1897,0.2019,0.2104,0.2335,0.2436,0.2773,0.2844,0.3092,0.3215,0.3244,0.3347,0.3382,0.3328,0.3313,0.3177,0.3094,0.3077,0.3068,0.3059,0.3154,0.3153,0.3151,0.315,0,0.1533,0.1596,0.1656,0.1717,0.1809,0.1888,0.2048,0.2119,0.2394,0.2611,0.2794,0.2896,0.3051,0.3127,0.3178,0.3184,0.3305,0.3254,0.3264,0.3136,0.306,0.3046,0.3043,0.3131,0.3133,0.3135,0.3136,0,0.1467,0.1485,0.156,0.1609,0.1707,0.1756,0.1848,0.1994,0.214,0.2524,0.2568,0.2826,0.3035,0.3026,0.3069,0.3062,0.3002,0.2879,0.2908,0.293,0.2764,0.2626,0.257,0,0,0,0,0,0.138,0.1393,0.143,0.1491,0.158,0.164,0.1808,0.191,0.2187,0.2253,0.2417,0.2552,0.2664,0.2776,0.2716,0.2918,0.2986,0.2829,0.2852,0.3024,0.3046,0.2868,0,0,0,0,0,0,0.1326,0.137,0.1391,0.1386,0.1406,0.1494,0.1603,0.1773,0.1824,0.2109,0.2181,0.2385,0.2517,0.2686,0.267,0.2698,0.2652,0.2974,0.2967,0.3011,0.3032,0.3049,0.2874,0,0,0,0,0]},{"header":{"parameterUnit":"m.s-1","parameterCategory":2,"la1":30.2991,"la2":30.254,"lo1":-89.0895,"lo2":-89.0444,"dy":0.0017,"dx":0.0017,"nx":28,"ny":28,"refTime":"2025-07-20T21:00:00:Z","depth":"4","parameterNumber":3,"parameterNumberName":"V-component_of_CURRENTS"},"data":[0,0,0,0,0,0,0,0,0,0,0,0,0,0,0,0,0,0,0,0,0,0,0,0,0,0,0,0,0,0,0,0,0,0,0,0,0,0,0,0,0,0,0,0,0,0,0,0,0,0,0,0,0,0,0,0,0,0,0.012,0.0119,0,0.009,0.0089,0.0089,0.0062,0.0062,0.0062,0.0062,0.0014,0.0013,0.0012,0,0,0,0,0,0,0,0,0,0,0,0,0,0.0114,0.0114,0.012,0.0119,0.0119,0.009,0.0089,0.0088,0.0062,0.0062,0.0062,0.0061,0.0014,0.0013,0.0012,0,0,0,0,0,0,0,0,0,0,0,0,0,0.0101,0.0114,0.012,0.0104,0.0102,0.009,0.0089,0.0088,0.0062,0.0062,0.0062,0.0061,0.0015,0.0013,0.0011,0.0004,0,0,0.0006,0.0005,0,0,0,0,0,0,0,0,0.0102,0.0101,0.0106,0.0105,0.0103,0.0081,0.007,0.006,0.0062,0.0075,0.0062,0.0061,0.0036,0.0033,0.0025,0.0002,-0.0,0.0006,0.0005,0.0004,0.0004,0,0,0,0,0,0,0,0.0103,0.0102,0.0105,0.0106,0.0104,0.0085,0.0083,0.0067,0.0055,0.0074,0.0072,0.0073,0.0035,0.0027,0.0023,-0.0001,0.0006,0.0005,0.0003,0.0003,-0.0039,-0.0039,0,0,0,0,0,0,0.0113,0.0103,0.0106,0.0105,0.0105,0.0085,0.0083,0.0087,0.0056,0.0051,0.0073,0.0071,0.003,0.0026,0.0022,0.0018,0.0004,0.0003,0.0002,-0.0039,-0.0039,-0.0039,0,0,0,0,0,0,0.0113,0.0114,0.0108,0.0105,0.0103,0.0086,0.009,0.0086,0.0083,0.0055,0.005,0.0074,0.0029,0.0024,0.0016,0.0016,0.0002,0.0,-0.0039,-0.0039,-0.0039,0.0007,0,0,0,0,0,0,0.0113,0.0114,0.012,0.0106,0.0104,0.0111,0.009,0.0086,0.0084,0.0082,0.0055,0.005,0.0029,0.0019,0.0015,0.0013,-0.0001,-0.0039,-0.0039,-0.0039,0.0005,0.0008,0.0011,0,0,0,0,0,0.0113,0.0128,0.012,0.012,0.0112,0.0112,0.011,0.0095,0.0085,0.009,0.007,0.0051,0.0015,0.0018,0.0013,0.0011,-0.0039,-0.0039,-0.0039,0.0004,0.0008,0.0011,0,0,0,0,0,0,0.0129,0.0126,0.0117,0.013,0.0125,0.0109,0.0112,0.0101,0.0089,0.0085,0.0057,0.0051,0.0042,0.0021,0.0026,-0.0003,-0.0018,-0.0019,0.0016,0.0019,0.0022,0.0035,-0.0003,0,0,0,0,0,0.0135,0.0146,0.0136,0.0147,0.0145,0.0128,0.0126,0.0117,0.0105,0.0099,0.0081,0.0057,0.0035,0.0025,0.0006,-0.0004,-0.0039,-0.0012,-0.001,-0.0007,-0.0002,-0.0055,-0.0056,-0.004,-0.004,-0.004,0,0,0.0145,0.0145,0.0151,0.0151,0.0143,0.0152,0.0126,0.0129,0.0136,0.0096,0.01,0.007,0.0036,0.0023,0.0016,0.0007,-0.0032,-0.0007,-0.0005,-0.0001,-0.0055,-0.0057,-0.0058,-0.004,-0.004,-0.004,0,0,0.0174,0.0169,0.0186,0.0186,0.0182,0.0172,0.0177,0.0164,0.0157,0.0156,0.0124,0.0095,0.0074,0.0042,0.0024,0.0029,-0.0013,0.0022,0.0044,-0.0007,-0.0009,-0.0011,-0.0062,-0.0069,0.002,0.0021,0.0021,0,0.0183,0.0207,0.0191,0.0207,0.0214,0.0187,0.0207,0.0196,0.0184,0.0179,0.0166,0.011,0.0081,0.005,0.0051,0.0035,0.0002,0.0037,-0.0003,-0.0006,-0.0009,-0.0061,-0.0069,0.0023,0.0022,0.0022,0.0022,0,0.0223,0.0243,0.0254,0.0265,0.0267,0.0283,0.0267,0.0269,0.0255,0.0235,0.0206,0.0155,0.0123,0.01,0.008,0.0043,0.0024,0.0009,-0.0009,-0.0008,-0.0063,-0.0072,0.0026,0.0025,0.0024,0.0024,0,0,0.0244,0.0277,0.0281,0.0308,0.0302,0.0317,0.0322,0.0322,0.0331,0.0288,0.0285,0.0223,0.0184,0.016,0.0114,0.0062,0.0009,0.0034,0.003,-0.0012,-0.0105,-0.0107,-0.0118,-0.0012,-0.0013,-0.0014,-0.0137,0,0.0282,0.0336,0.0334,0.0387,0.0416,0.0399,0.0415,0.0405,0.038,0.037,0.029,0.0271,0.021,0.0197,0.0131,0.0046,-0.0012,0.0044,-0.0104,-0.0108,-0.0107,-0.0128,-0.0018,-0.0144,-0.0146,-0.0148,-0.0149,0,0.0319,0.0357,0.0416,0.047,0.048,0.0509,0.053,0.054,0.0502,0.0476,0.0415,0.0357,0.0274,0.0229,0.0061,0.0102,0.0008,-0.0071,-0.0078,-0.0101,-0.0128,-0.0146,-0.0166,-0.0165,-0.0163,-0.0162,-0.0161,0,0.0355,0.0416,0.0473,0.0489,0.0535,0.057,0.0598,0.058,0.0604,0.0549,0.0548,0.042,0.038,0.0232,0.0067,0.0068,-0.0121,-0.014,-0.024,-0.0242,-0.0222,-0.0219,-0.0257,-0.0257,-0.0257,-0.0257,-0.0256,0,0.0398,0.0449,0.051,0.0546,0.0632,0.0639,0.0712,0.0706,0.071,0.0736,0.0618,0.0592,0.0382,0.025,0.0085,-0.0108,-0.0112,-0.0241,-0.0274,-0.0201,-0.0194,-0.0229,-0.0224,-0.0261,-0.026,-0.0259,-0.0259,0,0.043,0.0463,0.0545,0.0621,0.0655,0.0723,0.0821,0.0871,0.0853,0.0881,0.0875,0.073,0.0546,0.0325,0.0077,-0.0063,-0.0258,-0.0323,-0.0229,-0.0255,-0.0351,-0.0343,-0.0449,-0.045,-0.0451,-0.0452,-0.0453,0,0.0453,0.0496,0.0603,0.0669,0.0718,0.0824,0.0901,0.0939,0.0988,0.096,0.0976,0.0819,0.0693,0.0338,0.0087,-0.0241,-0.0284,-0.0387,-0.0375,-0.0349,-0.0372,-0.0361,-0.0352,-0.0454,-0.0454,-0.0455,-0.0455,0,0.0506,0.0541,0.061,0.0733,0.0841,0.0956,0.1068,0.1114,0.1147,0.1139,0.1063,0.0869,0.0655,0.035,0.0096,-0.0141,-0.0325,-0.0398,-0.0398,-0.0388,-0.0357,-0.0376,-0.0365,-0.0458,-0.0458,-0.0457,-0.0457,0,0.0543,0.0608,0.0695,0.0801,0.0938,0.1055,0.1106,0.1171,0.1218,0.1188,0.1153,0.091,0.0766,0.0401,0.0162,-0.007,-0.0131,-0.0203,-0.0214,-0.0214,-0.0114,-0.0038,-0.0073,0,0,0,0,0,0.0584,0.066,0.076,0.0885,0.1011,0.1083,0.1205,0.1239,0.1273,0.1242,0.1205,0.1003,0.0636,0.0461,0.0231,0.0126,-0.0184,-0.0154,-0.0275,-0.0477,-0.0473,-0.0397,0,0,0,0,0,0,0.0622,0.0723,0.0767,0.0929,0.1013,0.1163,0.1239,0.1254,0.1233,0.1219,0.1028,0.0942,0.0581,0.077,0.0224,0.015,0.0041,-0.0323,-0.0329,-0.0479,-0.0475,-0.0472,-0.0393,0,0,0,0,0]}]]